Flag for Canada Weather past 2 weeks in Vancouver, British Columbia, Canada

Now
50 °F

Clear.


Feels Like: 48 °F
Forecast: 44 / 64 °F
Wind: 6 mph from Northeast

Location: Vancouver International Air-Port

Current Time: May 4, 2015 at 1:05:22 AM

Latest Report: May 4, 2015 at 12:00 AM


Visibility: 15 mi

Pressure: 29.86 "Hg

Humidity: 67%

Dew point: 39 °F

Location of VancouverLocation

Historic Weather in Vancouver — Graph

°F

Vancouver temperature yesterday

Maximum temperature yesterday: 59 °F (at 3:00 PM)
Minimum temperature yesterday: 41 °F (at 6:00 AM)
Average temperature yesterday: 52 °F

Past Weeks' High & Low Weather Summary

 TemperatureHumidityPressure
High64 °F (Apr 27, 4:00 PM)100% (Apr 27, 3:45 AM)30.29 "Hg (Apr 27, 3:45 AM)
Low41 °F (Apr 24, 5:00 AM)31% (Apr 22, 4:00 PM)29.71 "Hg (Apr 24, 5:00 AM)
Average51 °F76%30.04 "Hg
* Reported Midnight between Apr 18 and Apr 19 — Midnight between May 3 and May 4, Vancouver, Weather by CustomWeather, © 2015

Note: Actual official high and low records may vary slightly from our data, if they occured in-between our weather recording intervals... More about our weather records

Advertising

Vancouver weather history for previous 24 hours

 ConditionsComfort  
Time TempWeatherWind HumidityBarometerVisibility
12:00 AM
Mon, May 4
50 °FClear.6 mph67%29.86 "Hg15 mi
11:00 PM
Sun, May 3
54 °FPassing clouds.No wind72%29.87 "Hg15 mi
10:00 PM52 °FPassing clouds.2 mph82%29.88 "Hg15 mi
9:00 PM54 °FPassing clouds.2 mph72%29.88 "Hg25 mi
8:00 PM55 °FPassing clouds.3 mph72%29.88 "Hg25 mi
7:00 PM57 °FPassing clouds.5 mph59%29.89 "Hg25 mi
6:00 PM59 °FPassing clouds.7 mph68%29.90 "Hg30 mi
5:00 PM59 °FPassing clouds.6 mph68%29.92 "Hg30 mi
4:00 PM59 °FPassing clouds.6 mph63%29.95 "Hg30 mi
3:00 PM59 °FPassing clouds.7 mph68%29.97 "Hg30 mi
2:00 PM57 °FPassing clouds.8 mph72%29.99 "Hg30 mi
1:00 PM57 °FPassing clouds.7 mph63%30.01 "Hg30 mi
12:00 PM57 °FPassing clouds.8 mph63%30.02 "Hg30 mi
11:00 AM57 °FPassing clouds.9 mph67%30.03 "Hg30 mi
10:00 AM55 °FSunny.3 mph67%30.03 "Hg30 mi
9:00 AM54 °FSunny.2 mph72%30.03 "Hg30 mi
8:00 AM52 °FPassing clouds.2 mph77%30.03 "Hg30 mi
7:00 AM46 °FPassing clouds.2 mph87%30.03 "Hg30 mi
6:00 AM41 °FClear.3 mph100%30.02 "Hg30 mi
5:00 AM43 °FClear.3 mph87%30.01 "Hg20 mi
4:00 AM43 °FClear.5 mph87%30.02 "Hg20 mi
3:00 AM45 °FClear.3 mph81%30.01 "Hg20 mi
2:00 AM45 °FClear.2 mph93%30.02 "Hg20 mi
1:00 AM48 °FClear.3 mph76%30.01 "Hg20 mi
Weather by CustomWeather, © 2015

See weather overviewHow to use our weather pages